Location: Aucun
(42.9667°N, 0.1667°W)
Time: 18:01:30
(UTC+00:00)

STARLINK-1058 - Pass Details

Date: 17 February 2020
Orbit: 548 x 551 km, 53.0° (Epoch: 28 March)

Event Time Altitude Azimuth Distance (km) Brightness Sun altitude
Exits shadow 04:57:17 53° 185° (S) 675 3.9 -22.4°
Drops below altitude 10° 05:00:48 10° 142° (SE) 1,816 6.7 -21.7°
Sets 05:03:03 0° 138° (SE) 2,706 7.7 -21.3°
